Location: Clanezzo
(45.7500°N, 9.6000°E)
Time: 08:59:29
(UTC+00:00)

Gbstr 26 Del rocket - Pass Details

Date: 28 September 2021
Orbit: 492 x 1263 km, 51.8° (Epoch: 18 October)

Event Time Altitude Azimuth Distance (km) Brightness Sun altitude
Rises 19:14:18 0° 231° (SW) 3,806 7.5 -22.6°
Reaches altitude 10° 19:16:50 10° 230° (SW) 2,947 6.8 -23.0°
Maximum altitude 19:24:09 76° 146° (SE) 1,245 4.3 -24.2°
Enters shadow 19:28:21 32° 66° (ENE) 2,010 5.3 -24.8°
